Quesnel,

5:21 AM PDT on June 29, 2017 (GMT -0700)
Quesnel

Weather History for CYQZ - September, 2012

Change the Weather History Date:

Wednesday, September 12, 2012

  Actual Average Record
Temperature  
Mean Temperature 46 °F -  
Max Temperature 64 °F 56 °F 89 °F (2013)
Min Temperature 28 °F 35 °F 28 °F (2012)
Degree Days  
Heating Degree Days 19    
Moisture  
Dew Point 34 °F    
Average Humidity 80    
Maximum Humidity 100    
Minimum Humidity 40    
Precipitation  
Precipitation 0.00 in - - ()
Sea Level Pressure  
Sea Level Pressure 30.38 in    
Wind  
Wind Speed 3 mph ()    
Max Wind Speed 13 mph    
Max Gust Speed 18 mph    
Visibility 7.7 miles    
Events      
Averages and records for this station are not official NWS values.
T = Trace of Precipitation, MM = Missing Value Source: Averaged Metar Reports

Daily Weather History Graph

Daily Weather History Graph

Search for Another Location

Airport or City:

Trip Planner

Search our weather history database for the weather conditions in past years. The results will help you decide how hot, cold, wet, or windy it might be!

Date:

Astronomy

Sep. 12, 2012 Rise Set
Actual Time 6:39 AM PDT 7:31 PM PDT
Civil Twilight 6:04 AM PDT 8:06 PM PDT
Nautical Twilight 5:22 AM PDT 8:48 PM PDT
Astronomical Twilight 4:37 AM PDT 9:33 PM PDT
Moon 2:38 AM PDT (9/12) 5:40 PM PDT (9/12)
Length of Visible Light 14h 01m
Length of Day
12h 51m
Waning Crescent, 13% of the Moon is Illuminated
Sep 12
Waning Crescent
Sep 15
New
Sep 22
First Quarter
Sep 29
Full
Oct 8
Last Quarter

Hourly Weather History & Observations

Time (PDT) Temp. Windchill Dew Point Humidity Pressure Visibility Wind Dir Wind Speed Gust Speed Precip Events Conditions
12:00 AM 35.6 °F - 33.8 °F 93% 30.38 in 9.0 mi Calm Calm - N/A   Clear
1:00 AM 33.8 °F 30.8 °F 32.0 °F 93% 30.39 in 9.0 mi Variable 3.5 mph - N/A   Clear
2:00 AM 30.2 °F - 30.2 °F 100% - 9.0 mi Calm Calm - N/A   Clear
2:37 AM 30.2 °F - 30.2 °F 100% - 4.0 mi North 2.3 mph - N/A   Clear
2:40 AM 30.2 °F - 30.2 °F 100% - 2.2 mi Calm Calm - N/A   Clear
2:47 AM 30.2 °F - 30.2 °F 100% - 3.0 mi Calm Calm - N/A   Clear
2:50 AM 32.0 °F - 32.0 °F 100% - 9.0 mi Calm Calm - N/A   Clear
3:00 AM 30.2 °F - 30.2 °F 100% 30.41 in 9.0 mi Variable 2.3 mph - N/A   Clear
4:00 AM 28.4 °F - 28.4 °F 100% 30.42 in 5.0 mi Calm Calm - N/A   Clear
4:10 AM 28.4 °F - 28.4 °F 100% 30.42 in 7.0 mi Calm Calm - N/A   Clear
4:11 AM 30.2 °F - 30.2 °F 100% 30.42 in 4.0 mi Calm Calm - N/A   Clear
4:12 AM 30.2 °F - 30.2 °F 100% 30.42 in 2.5 mi Calm Calm - N/A   Clear
4:19 AM 30.2 °F - 30.2 °F 100% 30.42 in 3.0 mi Calm Calm - N/A   Scattered Clouds
4:22 AM 30.2 °F - 30.2 °F 100% 30.42 in 9.0 mi Calm Calm - N/A   Mostly Cloudy
5:00 AM 33.8 °F - 32.0 °F 93% 30.41 in 9.0 mi SSE 2.3 mph - N/A   Mostly Cloudy
6:00 AM 33.8 °F 29.6 °F 33.8 °F 100% 30.42 in 9.0 mi South 4.6 mph - N/A   Overcast
7:00 AM 35.6 °F 32.8 °F 33.8 °F 93% 30.43 in 9.0 mi South 3.5 mph - N/A   Overcast
8:00 AM 37.4 °F 32.8 °F 35.6 °F 93% 30.44 in 9.0 mi South 5.8 mph - N/A   Overcast
9:00 AM 41.0 °F 37.1 °F 33.8 °F 76% 30.43 in 9.0 mi SE 5.8 mph - N/A   Overcast
10:00 AM 44.6 °F 39.2 °F 33.8 °F 66% 30.43 in 9.0 mi SE 10.4 mph - N/A   Overcast
11:00 AM 48.2 °F - 33.8 °F 58% 30.41 in 9.0 mi SE 11.5 mph 17.3 mph N/A   Overcast
12:00 PM 50.0 °F - 33.8 °F 54% 30.40 in 9.0 mi SE 11.5 mph - N/A   Overcast
1:00 PM 55.4 °F - 37.4 °F 51% 30.38 in 9.0 mi SE 11.5 mph 18.4 mph N/A   Overcast
2:00 PM 57.2 °F - 37.4 °F 48% 30.36 in 9.0 mi SE 9.2 mph - N/A   Clear
3:00 PM 59.0 °F - 37.4 °F 45% 30.34 in 9.0 mi SE 12.7 mph - N/A   Clear
4:00 PM 60.8 °F - 39.2 °F 45% 30.32 in 9.0 mi ESE 9.2 mph - N/A   Clear
6:00 PM 64.4 °F - 39.2 °F 40% 30.28 in 9.0 mi SE 10.4 mph - N/A   Clear
7:00 PM 60.8 °F - 39.2 °F 45% 30.29 in 9.0 mi ESE 9.2 mph - N/A   Clear
8:00 PM 59.0 °F - 39.2 °F 48% 30.30 in 9.0 mi ESE 6.9 mph - N/A   Scattered Clouds
10:00 PM 51.8 °F - 41.0 °F 67% 30.32 in 9.0 mi South 8.1 mph - N/A   Overcast
11:00 PM 48.2 °F - 41.0 °F 76% 30.32 in 9.0 mi Variable 2.3 mph - N/A   Partly Cloudy